Simultaneous Nadir Overpasses (SNOs) Predictions

Prediction of SNOs near equator between AQUA and NPP Satellite Orbit:

Table of predicted SNOs near equator for the next 14.0 days since TLE Epoch: 1/30/2017
Index Date (AQUA) Time (AQUA) AQUA Lat,Lon Date (NPP) Time (NPP) NPP Lat,Lon Distance(km) Time Diff (sec)
1 02/01/2017 07:52:39 5.61, 84.89 02/01/2017 07:42:49 5.58, 84.69 22.50 590
2 02/01/2017 08:40:47 -1.13,-106.49 02/01/2017 08:32:12 -1.03,-106.96 52.70 515
3 02/01/2017 09:29:02 -3.46, 62.10 02/01/2017 09:21:42 -3.64, 61.38 82.64 440
4 02/04/2017 00:08:47 4.27,-158.94 02/03/2017 23:59:19 4.18,-159.22 32.31 568
5 02/04/2017 00:56:54 0.27, 9.68 02/04/2017 00:48:42 0.37, 9.13 62.47 492
6 02/04/2017 01:45:09 -4.86, 178.28 02/04/2017 01:38:12 -5.04, 177.47 92.14 417
7 02/06/2017 15:42:53 -29.99, 143.40 02/06/2017 15:32:53 -30.53, 142.86 78.97 600
8 02/06/2017 16:24:54 2.88, -42.76 02/06/2017 16:15:49 2.79, -43.13 42.02 545
9 02/06/2017 17:13:01 1.66, 125.86 02/06/2017 17:05:12 1.77, 125.22 72.28 469
10 02/09/2017 07:52:45 -6.09, -95.19 02/09/2017 07:42:48 -6.06, -95.38 21.79 597
11 02/09/2017 08:41:00 1.50, 73.41 02/09/2017 08:32:18 1.40, 72.96 51.86 522
12 02/09/2017 09:29:08 2.98,-117.98 02/09/2017 09:21:41 3.16,-118.69 81.98 447
13 02/12/2017 00:08:51 -4.65, 21.00 02/11/2017 23:59:17 -4.61, 20.72 31.62 574
14 02/12/2017 00:57:07 0.12,-170.41 02/12/2017 00:48:48 0.01,-170.96 61.76 499
15 02/12/2017 01:45:14 4.42, -1.79 02/12/2017 01:38:10 4.61, -2.59 91.60
